Falfurrias, TX

8:08 PM CST on November 19, 2019 (GMT -0600)
Falfurrias

Weather History for KBKS - August, 2019

Change the Weather History Date:

Saturday, August 10, 2019

  Actual Average (WUND) Record (WUND)
Temperature  
Mean Temperature 92 °F -  
Max Temperature 105 °F - - (-1)
Min Temperature 81 °F - - (-1)
Cooling Degree Days 28    
Growing Degree Days 42 (Base 50)    
Moisture  
Dew Point 74 °F    
Average Humidity 63    
Maximum Humidity 88    
Minimum Humidity 28    
Precipitation  
Precipitation 0.00 in - - ()
Sea Level Pressure  
Sea Level Pressure 29.90 in    
Wind  
Wind Speed 9 mph ()    
Max Wind Speed 20 mph    
Max Gust Speed 26 mph    
Visibility 9.5 miles    
Events      
Averages and records for this station are not official NWS values.
T = Trace of Precipitation, MM = Missing Value Source: Averaged Metar Reports

Daily Weather History Graph

Daily Weather History Graph

Search for Another Location

Airport or City:

Astronomy

Aug. 10, 2019 Rise Set
Actual Time 7:01 AM CDT 8:14 PM CDT
Civil Twilight 6:36 AM CDT 8:38 PM CDT
Nautical Twilight 6:07 AM CDT 9:08 PM CDT
Astronomical Twilight 5:36 AM CDT 9:38 PM CDT
Moon 4:47 PM CDT (8/10) 2:46 AM CDT (8/10)
Length of Visible Light 14h 02m
Length of Day
13h 13m
Waxing Gibbous, 79% of the Moon is Illuminated
Aug 10
Waxing Gibbous
Aug 15
Full
Aug 23
Last Quarter
Aug 30
New
Sep 5
First Quarter

Hourly Weather History & Observations

Time (CDT) Temp. Heat Index Dew Point Humidity Pressure Visibility Wind Dir Wind Speed Gust Speed Precip Events Conditions
12:15 AM 84.2 °F 93.8 °F 76.6 °F 78% 29.91 in 10.0 mi SE 8.1 mph - N/A   Clear
12:35 AM 83.8 °F 93.2 °F 76.6 °F 79% 29.91 in 10.0 mi SE 8.1 mph - N/A   Clear
12:55 AM 83.8 °F 93.5 °F 77.0 °F 80% 29.92 in 10.0 mi SE 6.9 mph - N/A   Clear
1:15 AM 83.5 °F 92.9 °F 77.0 °F 81% 29.91 in 10.0 mi SE 8.1 mph - N/A   Clear
1:35 AM 83.5 °F 93.3 °F 77.4 °F 82% 29.91 in 10.0 mi SE 9.2 mph - N/A   Clear
1:55 AM 83.3 °F 93.1 °F 77.5 °F 83% 29.91 in 10.0 mi SE 8.1 mph - N/A   Clear
2:15 AM 83.5 °F 93.6 °F 77.9 °F 83% 29.91 in 10.0 mi ESE 9.2 mph - N/A   Mostly Cloudy
2:35 AM 83.3 °F 93.1 °F 77.7 °F 83% 29.90 in 10.0 mi SE 9.2 mph - N/A   Scattered Clouds
2:55 AM 83.3 °F 93.5 °F 77.9 °F 84% 29.90 in 10.0 mi SE 8.1 mph - N/A   Clear
3:15 AM 82.9 °F 92.8 °F 77.9 °F 85% 29.89 in 10.0 mi SE 9.2 mph - N/A   Scattered Clouds
3:35 AM 82.8 °F 91.9 °F 77.5 °F 84% 29.89 in 10.0 mi SE 9.2 mph - N/A   Scattered Clouds
3:55 AM 82.6 °F 91.7 °F 77.7 °F 85% 29.89 in 10.0 mi SE 6.9 mph - N/A   Mostly Cloudy
4:15 AM 82.4 °F 91.5 °F 77.7 °F 86% 29.88 in 10.0 mi SE 8.1 mph - N/A   Scattered Clouds
4:35 AM 82.0 °F 90.5 °F 77.5 °F 86% 29.88 in 7.0 mi SE 9.2 mph - N/A   Scattered Clouds
4:55 AM 81.9 °F 90.2 °F 77.5 °F 87% 29.88 in 10.0 mi SSE 8.1 mph - N/A   Clear
5:15 AM 81.7 °F 89.7 °F 77.4 °F 87% 29.88 in 10.0 mi SE 6.9 mph - N/A   Clear
5:35 AM 81.7 °F 89.7 °F 77.4 °F 87% 29.88 in 7.0 mi SE 3.5 mph - N/A   Clear
5:55 AM 81.5 °F 89.2 °F 77.4 °F 87% 29.88 in 7.0 mi SE 5.8 mph - N/A   Clear
6:15 AM 81.5 °F 89.2 °F 77.4 °F 87% 29.88 in 7.0 mi SE 5.8 mph - N/A   Clear
6:35 AM 81.1 °F 88.4 °F 77.4 °F 88% 29.88 in 7.0 mi SE 5.8 mph - N/A   Clear
6:55 AM 81.3 °F 89.0 °F 77.4 °F 88% 29.90 in 7.0 mi SE 5.8 mph - N/A   Clear
7:15 AM 81.0 °F 87.9 °F 77.2 °F 88% 29.90 in 7.0 mi ESE 4.6 mph - N/A   Clear
7:35 AM 81.1 °F 88.4 °F 77.4 °F 88% 29.91 in 7.0 mi ESE 3.5 mph - N/A   Clear
7:55 AM 82.0 °F 90.8 °F 77.9 °F 87% 29.92 in 7.0 mi ESE 5.8 mph - N/A   Clear
8:15 AM 83.5 °F 94.0 °F 78.1 °F 84% 29.93 in 7.0 mi ESE 4.6 mph - N/A   Clear
8:35 AM 84.6 °F 96.0 °F 78.3 °F 81% 29.94 in 7.0 mi SE 8.1 mph - N/A   Mostly Cloudy
8:55 AM 86.0 °F 98.8 °F 78.4 °F 78% 29.94 in 10.0 mi SSE 6.9 mph - N/A   Overcast
9:15 AM 87.6 °F 100.8 °F 77.9 °F 73% 29.95 in 10.0 mi SSE 9.2 mph - N/A   Mostly Cloudy
9:35 AM 89.4 °F 102.3 °F 77.2 °F 67% 29.95 in 10.0 mi SE 10.4 mph - N/A   Mostly Cloudy
9:55 AM 91.4 °F 103.8 °F 76.1 °F 61% 29.95 in 10.0 mi SSE 15.0 mph - N/A   Mostly Cloudy
10:15 AM 93.0 °F 104.6 °F 75.4 °F 56% 29.95 in 10.0 mi SSE 16.1 mph 23.0 mph N/A   Mostly Cloudy
10:35 AM 94.3 °F 105.6 °F 74.7 °F 53% 29.95 in 10.0 mi SE 16.1 mph 21.9 mph N/A   Mostly Cloudy
10:55 AM 94.6 °F 104.4 °F 73.6 °F 50% 29.95 in 10.0 mi SSE 11.5 mph 23.0 mph N/A   Scattered Clouds
11:15 AM 95.9 °F 105.9 °F 73.2 °F 48% 29.95 in 10.0 mi SE 18.4 mph - N/A   Mostly Cloudy
11:35 AM 96.6 °F 106.1 °F 72.5 °F 46% 29.94 in 10.0 mi SSE 16.1 mph 20.7 mph N/A   Scattered Clouds
11:55 AM 97.5 °F 106.0 °F 71.6 °F 43% 29.94 in 10.0 mi SSE 13.8 mph 21.9 mph N/A   Scattered Clouds
12:15 PM 98.6 °F 107.7 °F 71.8 °F 42% 29.93 in 10.0 mi SSE 16.1 mph 21.9 mph N/A   Clear
12:35 PM 99.0 °F 107.0 °F 70.7 °F 40% 29.93 in 10.0 mi SSE 18.4 mph 24.2 mph N/A   Clear
12:55 PM 99.3 °F 106.3 °F 69.6 °F 38% 29.92 in 10.0 mi SSE 12.7 mph 21.9 mph N/A   Clear
1:15 PM 100.9 °F 108.2 °F 69.1 °F 36% 29.91 in 10.0 mi SSE 13.8 mph 23.0 mph N/A   Clear
1:35 PM 101.5 °F 106.3 °F 66.9 °F 32% 29.90 in 10.0 mi SSE 12.7 mph 20.7 mph N/A   Clear
1:55 PM 102.0 °F 108.1 °F 67.8 °F 33% 29.89 in 10.0 mi SSE 18.4 mph 21.9 mph N/A   Clear
2:15 PM 102.0 °F 107.3 °F 66.7 °F 32% 29.89 in 10.0 mi SE 13.8 mph - N/A   Clear
2:35 PM 102.7 °F 108.0 °F 66.6 °F 31% 29.88 in 10.0 mi SSE 15.0 mph 20.7 mph N/A   Clear
2:55 PM 103.8 °F 108.5 °F 65.7 °F 29% 29.87 in 10.0 mi SSE 15.0 mph 19.6 mph N/A   Clear
3:15 PM 103.3 °F 108.3 °F 65.8 °F 30% 29.87 in 10.0 mi SSE 12.7 mph 20.7 mph N/A   Clear
3:35 PM 103.6 °F 108.2 °F 65.8 °F 29% 29.86 in 10.0 mi ESE 13.8 mph 18.4 mph N/A   Clear
3:55 PM 104.4 °F 108.8 °F 65.3 °F 28% 29.85 in 10.0 mi SSE 13.8 mph 19.6 mph N/A   Clear
4:15 PM 104.9 °F 109.8 °F 65.7 °F 28% 29.85 in 10.0 mi South 12.7 mph 20.7 mph N/A   Clear
4:35 PM 104.5 °F 109.1 °F 65.7 °F 28% 29.84 in 10.0 mi ESE 11.5 mph 20.7 mph N/A   Clear
4:55 PM 102.2 °F 111.7 °F 71.4 °F 37% 29.83 in 10.0 mi East 11.5 mph 23.0 mph N/A   Scattered Clouds
5:15 PM 102.4 °F 111.2 °F 71.1 °F 36% 29.83 in 10.0 mi ESE 15.0 mph 26.5 mph N/A   Scattered Clouds
5:35 PM 101.1 °F 110.1 °F 71.2 °F 38% 29.83 in 10.0 mi ESE 16.1 mph 20.7 mph N/A   Scattered Clouds
5:55 PM 100.8 °F 110.2 °F 72.0 °F 39% 29.83 in 10.0 mi ESE 16.1 mph 24.2 mph N/A   Scattered Clouds
6:15 PM 99.3 °F 109.3 °F 72.9 °F 42% 29.83 in 10.0 mi East 19.6 mph 24.2 mph N/A   Clear
6:35 PM 97.9 °F 108.3 °F 73.4 °F 45% 29.83 in 10.0 mi ESE 16.1 mph 25.3 mph N/A   Clear
6:55 PM 97.0 °F 108.5 °F 74.1 °F 48% 29.84 in 10.0 mi ESE 19.6 mph 25.3 mph N/A   Clear
7:15 PM 95.5 °F 106.5 °F 73.9 °F 50% 29.84 in 10.0 mi ESE 17.3 mph 21.9 mph N/A   Clear
7:35 PM 93.9 °F 103.4 °F 73.6 °F 51% 29.85 in 10.0 mi ESE 12.7 mph 20.7 mph N/A   Clear
7:55 PM 92.5 °F 101.9 °F 73.6 °F 54% 29.86 in 10.0 mi ESE 12.7 mph 18.4 mph N/A   Clear
8:15 PM 90.5 °F 99.2 °F 73.4 °F 57% 29.87 in 10.0 mi ESE 16.1 mph 24.2 mph N/A   Clear
8:35 PM 89.2 °F 97.9 °F 73.9 °F 60% 29.87 in 10.0 mi ESE 15.0 mph 23.0 mph N/A   Clear
8:55 PM 88.2 °F 98.0 °F 75.0 °F 65% 29.88 in 10.0 mi ESE 9.2 mph 19.6 mph N/A   Clear
9:15 PM 87.3 °F 96.3 °F 74.8 °F 66% 29.90 in 10.0 mi ESE 11.5 mph 19.6 mph N/A   Clear
9:35 PM 86.5 °F 95.5 °F 74.8 °F 68% 29.91 in 10.0 mi ESE 10.4 mph - N/A   Clear
9:55 PM 86.0 °F 95.5 °F 75.6 °F 71% 29.91 in 10.0 mi ESE 8.1 mph - N/A   Clear
10:15 PM 85.5 °F 95.0 °F 76.1 °F 73% 29.92 in 10.0 mi ESE 8.1 mph - N/A   Clear
10:35 PM 85.1 °F 94.9 °F 76.5 °F 75% 29.92 in 10.0 mi SE 9.2 mph - N/A   Clear
10:55 PM 84.7 °F 94.8 °F 76.6 °F 77% 29.93 in 10.0 mi SE 9.2 mph - N/A   Clear
11:15 PM 84.6 °F 94.7 °F 77.0 °F 78% 29.94 in 10.0 mi SE 6.9 mph - N/A   Clear
11:35 PM 84.2 °F 94.1 °F 77.0 °F 79% 29.95 in 10.0 mi SE 4.6 mph - N/A   Clear
11:55 PM 84.2 °F 94.5 °F 77.4 °F 80% 29.96 in 10.0 mi SE 5.8 mph - N/A   Clear